Location: Niedergestelen
(46.3129°N, 7.7822°E)
Time: 13:45:53
(UTC+00:00)

SL-16 R/B - Pass Details

Date: 01 December 2020
Orbit: 841 x 849 km, 71.0° (Epoch: 26 January)

Event Time Altitude Azimuth Distance (km) Brightness Sun altitude
Rises 16:50:02 0° 211° (SSW) 3,384 6.2 -11.1°
Reaches altitude 10° 16:52:28 10° 214° (SW) 2,453 5.5 -11.5°
Maximum altitude 16:58:05 71° 298° (WNW) 890 2.5 -12.4°
Drops below altitude 10° 17:03:45 10° 23° (NNE) 2,468 4.2 -13.3°
Enters shadow 17:04:40 - 24° (NNE) 2,818 4.5 -13.4°
